Time,TemperatureF,DewpointF,PressureIn,WindDirection,WindDirectionDegrees,WindSpeedMPH,WindSpeedGustMPH,Humidity,HourlyPrecipIn,Conditions,Clouds,dailyrainin,SolarRadiationWatts/m^2,SoftwareType,DateUTC
2013-06-24 00:02:00,74.0,70.0,-100.00,ESE,123,3.0,6.0,88,0.00,,,0.00,0.000000,,2013-06-24 04:02:00,
2013-06-24 00:12:00,73.0,71.0,-100.00,SE,126,2.0,6.0,92,0.00,,,0.00,0.000000,,2013-06-24 04:12:00,
2013-06-24 00:33:00,73.0,71.0,-100.00,SE,126,2.0,6.0,92,0.00,,,0.00,0.000000,,2013-06-24 04:33:00,
2013-06-24 00:43:00,73.0,71.0,-100.00,SE,126,2.0,6.0,92,0.00,,,0.00,0.000000,,2013-06-24 04:43:00,
2013-06-24 00:53:00,73.0,71.0,-100.00,SE,126,2.0,6.0,92,0.00,,,0.00,0.000000,,2013-06-24 04:53:00,
2013-06-24 01:02:00,73.0,71.0,-100.00,SE,126,2.0,6.0,92,0.00,,,0.00,0.000000,,2013-06-24 05:02:00,
2013-06-24 01:12:00,72.0,70.0,-100.00,NE,35,0.0,2.0,95,0.00,,,0.00,0.000000,,2013-06-24 05:12:00,
2013-06-24 01:47:00,72.0,70.0,-100.00,NE,35,0.0,2.0,95,0.00,,,0.00,0.000000,,2013-06-24 05:47:00,
2013-06-24 02:12:00,72.0,70.0,-100.00,SE,129,2.0,3.0,94,0.00,,,0.00,0.000000,,2013-06-24 06:12:00,
2013-06-24 02:57:00,72.0,70.0,-100.00,SE,129,2.0,3.0,94,0.00,,,0.00,0.000000,,2013-06-24 06:57:00,
2013-06-24 03:05:00,72.0,70.0,-100.00,SE,129,2.0,3.0,94,0.00,,,0.00,0.000000,,2013-06-24 07:05:00,
2013-06-24 03:12:00,72.0,70.0,-100.00,SE,139,0.0,3.0,94,0.00,,,0.00,0.000000,,2013-06-24 07:12:00,
2013-06-24 03:49:00,72.0,70.0,-100.00,SE,139,0.0,3.0,94,0.00,,,0.00,0.000000,,2013-06-24 07:49:00,
2013-06-24 03:58:00,72.0,70.0,-100.00,SE,139,0.0,3.0,94,0.00,,,0.00,0.000000,,2013-06-24 07:58:00,
2013-06-24 04:04:00,72.0,70.0,-100.00,SE,139,0.0,3.0,94,0.00,,,0.00,0.000000,,2013-06-24 08:04:00,
2013-06-24 04:12:00,71.0,69.0,-100.00,East,80,0.0,3.0,95,0.00,,,0.00,0.000000,,2013-06-24 08:12:00,
2013-06-24 04:55:00,71.0,69.0,-100.00,East,80,0.0,3.0,95,0.00,,,0.00,0.000000,,2013-06-24 08:55:00,
2013-06-24 05:12:00,70.0,69.0,-100.00,ESE,114,0.0,1.0,96,0.00,,,0.00,0.000000,,2013-06-24 09:12:00,
2013-06-24 05:49:00,70.0,69.0,-100.00,ESE,114,0.0,1.0,96,0.00,,,0.00,0.000000,,2013-06-24 09:49:00,
2013-06-24 06:00:00,70.0,69.0,-100.00,ESE,114,0.0,1.0,96,0.00,,,0.00,0.000000,,2013-06-24 10:00:00,
2013-06-24 06:12:00,71.0,70.0,-100.00,SE,142,0.0,2.0,97,0.00,,,0.00,0.000000,,2013-06-24 10:12:00,
2013-06-24 06:38:00,71.0,70.0,-100.00,SE,142,0.0,2.0,97,0.00,,,0.00,0.000000,,2013-06-24 10:38:00,
2013-06-24 06:51:00,71.0,70.0,-100.00,SE,142,0.0,2.0,97,0.00,,,0.00,0.000000,,2013-06-24 10:51:00,
2013-06-24 07:12:00,70.0,69.0,-100.00,South,173,0.0,3.0,97,0.00,,,0.00,14.000000,,2013-06-24 11:12:00,
2013-06-24 07:58:00,70.0,69.0,-100.00,South,173,0.0,3.0,97,0.00,,,0.00,14.000000,,2013-06-24 11:58:00,
2013-06-24 08:06:00,70.0,69.0,-100.00,South,173,0.0,3.0,97,0.00,,,0.00,14.000000,,2013-06-24 12:06:00,
2013-06-24 08:12:00,74.0,72.0,-100.00,SW,223,0.0,3.0,93,0.00,,,0.00,65.000000,,2013-06-24 12:12:00,
2013-06-24 08:49:00,74.0,72.0,-100.00,SW,223,0.0,3.0,93,0.00,,,0.00,65.000000,,2013-06-24 12:49:00,
2013-06-24 08:55:00,74.0,72.0,-100.00,SW,223,0.0,3.0,93,0.00,,,0.00,65.000000,,2013-06-24 12:55:00,
2013-06-24 09:06:00,74.0,72.0,-100.00,SW,223,0.0,3.0,93,0.00,,,0.00,65.000000,,2013-06-24 13:06:00,
2013-06-24 09:12:00,77.0,72.0,-100.00,South,174,2.0,6.0,85,0.00,,,0.00,99.000000,,2013-06-24 13:12:00,
2013-06-24 09:46:00,77.0,72.0,-100.00,South,174,2.0,6.0,85,0.00,,,0.00,99.000000,,2013-06-24 13:46:00,
2013-06-24 10:03:00,77.0,72.0,-100.00,South,174,2.0,6.0,85,0.00,,,0.00,99.000000,,2013-06-24 14:03:00,
2013-06-24 10:12:00,80.0,73.0,-100.00,WSW,249,0.0,4.0,78,0.00,,,0.00,196.000000,,2013-06-24 14:12:00,
2013-06-24 10:47:00,80.0,73.0,-100.00,WSW,249,0.0,4.0,78,0.00,,,0.00,196.000000,,2013-06-24 14:47:00,
2013-06-24 10:59:00,80.0,73.0,-100.00,WSW,249,0.0,4.0,78,0.00,,,0.00,196.000000,,2013-06-24 14:59:00,
2013-06-24 11:05:00,80.0,73.0,-100.00,WSW,249,0.0,4.0,78,0.00,,,0.00,196.000000,,2013-06-24 15:05:00,
2013-06-24 11:12:00,85.0,74.0,-100.00,NNW,341,0.0,4.0,69,0.00,,,0.00,438.000000,,2013-06-24 15:12:00,
2013-06-24 11:49:00,85.0,74.0,-100.00,NNW,341,0.0,4.0,69,0.00,,,0.00,438.000000,,2013-06-24 15:49:00,
2013-06-24 11:57:00,85.0,74.0,-100.00,NNW,341,0.0,4.0,69,0.00,,,0.00,438.000000,,2013-06-24 15:57:00,
2013-06-24 12:04:00,85.0,74.0,-100.00,NNW,341,0.0,4.0,69,0.00,,,0.00,438.000000,,2013-06-24 16:04:00,
2013-06-24 12:12:00,86.0,72.0,-100.00,South,169,1.0,4.0,63,0.00,,,0.00,645.000000,,2013-06-24 16:12:00,
2013-06-24 12:45:00,86.0,72.0,-100.00,South,169,1.0,4.0,63,0.00,,,0.00,645.000000,,2013-06-24 16:45:00,
2013-06-24 12:56:00,86.0,72.0,-100.00,South,169,1.0,4.0,63,0.00,,,0.00,645.000000,,2013-06-24 16:56:00,
2013-06-24 13:06:00,86.0,72.0,-100.00,South,169,1.0,4.0,63,0.00,,,0.00,645.000000,,2013-06-24 17:06:00,
2013-06-24 13:12:00,88.0,71.0,-100.00,WNW,289,0.0,7.0,58,0.00,,,-99.99,662.000000,,2013-06-24 17:12:00,
2013-06-24 13:48:00,88.0,71.0,-100.00,WNW,289,0.0,7.0,58,0.00,,,-99.99,662.000000,,2013-06-24 17:48:00,
2013-06-24 13:57:00,88.0,71.0,-100.00,WNW,289,0.0,7.0,58,0.00,,,-99.99,662.000000,,2013-06-24 17:57:00,
2013-06-24 14:03:00,88.0,71.0,-100.00,WNW,289,0.0,7.0,58,0.00,,,-99.99,662.000000,,2013-06-24 18:03:00,
2013-06-24 14:12:00,89.0,70.0,-100.00,WNW,295,1.0,6.0,53,0.00,,,0.00,711.000000,,2013-06-24 18:12:00,
2013-06-24 14:50:00,89.0,70.0,-100.00,WNW,295,1.0,6.0,53,0.00,,,0.00,711.000000,,2013-06-24 18:50:00,
2013-06-24 14:56:00,89.0,70.0,-100.00,WNW,295,1.0,6.0,53,0.00,,,0.00,711.000000,,2013-06-24 18:56:00,
2013-06-24 15:07:00,89.0,70.0,-100.00,WNW,295,1.0,6.0,53,0.00,,,0.00,711.000000,,2013-06-24 19:07:00,
2013-06-24 15:12:00,90.0,71.0,-100.00,WNW,294,1.0,7.0,53,0.00,,,0.00,761.000000,,2013-06-24 19:12:00,
2013-06-24 15:57:00,90.0,71.0,-100.00,WNW,294,1.0,7.0,53,0.00,,,0.00,761.000000,,2013-06-24 19:57:00,
2013-06-24 16:05:00,90.0,71.0,-100.00,WNW,294,1.0,7.0,53,0.00,,,0.00,761.000000,,2013-06-24 20:05:00,
2013-06-24 16:12:00,90.0,71.0,-100.00,NW,326,0.0,5.0,53,0.00,,,0.00,654.000000,,2013-06-24 20:12:00,
2013-06-24 16:47:00,90.0,71.0,-100.00,NW,326,0.0,5.0,53,0.00,,,0.00,654.000000,,2013-06-24 20:47:00,
2013-06-24 16:56:00,90.0,71.0,-100.00,NW,326,0.0,5.0,53,0.00,,,0.00,654.000000,,2013-06-24 20:56:00,
2013-06-24 17:04:00,90.0,71.0,-100.00,NW,326,0.0,5.0,53,0.00,,,0.00,654.000000,,2013-06-24 21:04:00,
2013-06-24 17:12:00,88.0,69.0,-100.00,SSW,204,3.0,16.0,53,0.00,,,0.00,280.000000,,2013-06-24 21:12:00,
2013-06-24 17:48:00,88.0,69.0,-100.00,SSW,204,3.0,16.0,53,0.00,,,0.00,280.000000,,2013-06-24 21:48:00,
2013-06-24 17:55:00,88.0,69.0,-100.00,SSW,204,3.0,16.0,53,0.00,,,0.00,280.000000,,2013-06-24 21:55:00,
2013-06-24 18:12:00,83.0,70.0,-100.00,SE,133,5.0,12.0,64,0.00,,,0.00,138.000000,,2013-06-24 22:12:00,
2013-06-24 18:51:00,83.0,70.0,-100.00,SE,133,5.0,12.0,64,0.00,,,0.00,138.000000,,2013-06-24 22:51:00,
2013-06-24 18:56:00,83.0,70.0,-100.00,SE,133,5.0,12.0,64,0.00,,,0.00,138.000000,,2013-06-24 22:56:00,
2013-06-24 19:05:00,83.0,70.0,-100.00,SE,133,5.0,12.0,64,0.00,,,0.00,138.000000,,2013-06-24 23:05:00,
2013-06-24 19:12:00,79.0,72.0,-100.00,South,174,0.0,8.0,78,0.00,,,0.00,39.000000,,2013-06-24 23:12:00,
2013-06-24 19:46:00,79.0,72.0,-100.00,South,174,0.0,8.0,78,0.00,,,0.00,39.000000,,2013-06-24 23:46:00,
2013-06-24 19:56:00,79.0,72.0,-100.00,South,174,0.0,8.0,78,0.00,,,0.00,39.000000,,2013-06-24 23:56:00,
2013-06-24 20:06:00,79.0,72.0,-100.00,South,174,0.0,8.0,78,0.00,,,0.00,39.000000,,2013-06-25 00:06:00,
2013-06-24 21:12:00,76.0,72.0,-100.00,SE,131,1.0,4.0,86,-99.99,,,0.00,5.000000,,2013-06-25 01:12:00,
2013-06-24 21:46:00,76.0,72.0,-100.00,SE,131,1.0,4.0,86,-99.99,,,0.00,5.000000,,2013-06-25 01:46:00,
2013-06-24 21:58:00,76.0,72.0,-100.00,SE,131,1.0,4.0,86,-99.99,,,0.00,5.000000,,2013-06-25 01:58:00,
2013-06-24 22:05:00,76.0,72.0,-100.00,SE,131,1.0,4.0,86,-99.99,,,0.00,5.000000,,2013-06-25 02:05:00,
2013-06-24 22:58:00,74.0,70.0,-100.00,SE,138,2.0,7.0,88,0.00,,,0.00,0.000000,,2013-06-25 02:58:00,
2013-06-24 23:07:00,74.0,70.0,-100.00,SE,138,2.0,7.0,88,0.00,,,0.00,0.000000,,2013-06-25 03:07:00,